[[{"header":{"parameterUnit":"m.s-1","parameterCategory":1,"la1":30.2991,"la2":30.254,"lo1":-89.0895,"lo2":-89.0444,"dy":0.0017,"dx":0.0017,"nx":28,"ny":28,"refTime":"2023-08-29T21:00:00:Z","depth":0,"parameterNumber":2,"parameterNumberName":"U-component_of_WINDS"},"data":[0,0,0,0,0,0,0,0,0,0,0,0,0,0,0,0,0,0,0,0,0,0,0,0,0,0,0,0,0,0,0,0,0,0,0,0,0,0,0,0,0,0,0,0,0,0,0,0,0,0,0,0,0,0,0,0,0,0,1.5708,1.5707,0,1.557,1.5568,1.5567,1.5505,1.5506,1.5506,1.5506,1.5357,1.5353,1.5349,0,0,0,0,0,0,0,0,0,0,0,0,0,1.5914,1.591,1.5709,1.5707,1.5705,1.557,1.5568,1.5566,1.5505,1.5506,1.5506,1.5506,1.5358,1.5353,1.5348,0,0,0,0,0,0,0,0,0,0,0,0,0,1.5805,1.5909,1.5709,1.5659,1.5653,1.557,1.5568,1.5566,1.5505,1.5506,1.5506,1.5506,1.536,1.5354,1.5347,1.5302,0,0,1.5328,1.5326,0,0,0,0,0,0,0,0,1.5811,1.5797,1.5668,1.5662,1.5655,1.5555,1.5586,1.5477,1.5505,1.5561,1.5506,1.5506,1.5422,1.5411,1.5384,1.5296,1.5289,1.5328,1.5324,1.5321,1.532,0,0,0,0,0,0,0,1.5819,1.5803,1.5653,1.5666,1.5658,1.5641,1.5626,1.5565,1.5491,1.5556,1.5552,1.5536,1.5419,1.539,1.538,1.5287,1.5328,1.5322,1.5319,1.5316,1.5154,1.5153,0,0,0,0,0,0,1.5835,1.581,1.5658,1.5649,1.5736,1.5637,1.562,1.5587,1.5492,1.5478,1.5536,1.5534,1.54,1.5387,1.5374,1.5315,1.5321,1.5315,1.5312,1.5154,1.5153,1.5153,0,0,0,0,0,0,1.584,1.5822,1.5663,1.5728,1.5707,1.5633,1.5597,1.5584,1.5555,1.5477,1.5463,1.5521,1.54,1.5383,1.5321,1.5309,1.5313,1.5307,1.5155,1.5154,1.5153,1.5196,0,0,0,0,0,0,1.5846,1.5825,1.5808,1.5728,1.5703,1.5615,1.5596,1.5581,1.5546,1.5541,1.5459,1.5445,1.5399,1.5331,1.5315,1.53,1.5302,1.5156,1.5154,1.5153,1.5195,1.5197,1.5198,0,0,0,0,0,1.5854,1.5824,1.5808,1.579,1.5682,1.5614,1.56,1.555,1.5545,1.5527,1.5476,1.5448,1.5313,1.5325,1.5307,1.529,1.5156,1.5155,1.5154,1.5195,1.5196,1.5198,0,0,0,0,0,0,1.5902,1.5813,1.5794,1.5738,1.5685,1.5604,1.558,1.5553,1.5498,1.5496,1.5434,1.5415,1.5359,1.5318,1.5333,1.5241,1.5232,1.5227,1.5269,1.527,1.5272,1.5282,1.5297,0,0,0,0,0,1.5907,1.5862,1.5785,1.5743,1.5718,1.5654,1.5622,1.5589,1.553,1.5506,1.5451,1.5393,1.5337,1.5302,1.5246,1.5189,1.5169,1.5169,1.517,1.5171,1.5167,1.5133,1.5131,1.5149,1.5149,1.5149,0,0,1.5915,1.5861,1.5836,1.5752,1.5706,1.5659,1.5635,1.5586,1.5549,1.5497,1.5436,1.5394,1.5325,1.5265,1.5236,1.5229,1.5158,1.517,1.5172,1.5166,1.5132,1.513,1.5129,1.5148,1.5148,1.5148,0,0,1.5906,1.5861,1.5821,1.5777,1.5709,1.5667,1.5657,1.5581,1.5552,1.549,1.545,1.5404,1.531,1.5263,1.5226,1.52,1.517,1.5183,1.5189,1.5157,1.5155,1.5154,1.5143,1.514,1.518,1.518,1.518,0,1.5924,1.5853,1.5803,1.5756,1.572,1.5674,1.5632,1.559,1.5507,1.5482,1.5477,1.5358,1.5308,1.5236,1.523,1.5202,1.5188,1.5192,1.516,1.5158,1.5156,1.5145,1.5141,1.5181,1.5181,1.5181,1.5181,0,1.5878,1.5829,1.5805,1.5728,1.5689,1.5645,1.5586,1.5552,1.5522,1.548,1.5416,1.5355,1.5287,1.5267,1.5236,1.5191,1.5189,1.5173,1.5162,1.5157,1.5145,1.5141,1.5184,1.5184,1.5183,1.5182,0,0,1.5894,1.5792,1.5784,1.5748,1.5671,1.5631,1.5584,1.5519,1.549,1.5434,1.5392,1.5314,1.5299,1.5257,1.5221,1.5192,1.5174,1.5179,1.5176,1.5179,1.5118,1.513,1.5126,1.5155,1.5154,1.5153,1.5124,0,1.5873,1.579,1.5744,1.5678,1.5631,1.5587,1.5546,1.5493,1.5452,1.5405,1.5359,1.5304,1.5289,1.5263,1.5234,1.5183,1.516,1.5184,1.5112,1.511,1.513,1.512,1.5133,1.5108,1.5119,1.5118,1.5118,0,1.5837,1.5785,1.5716,1.5644,1.5622,1.5586,1.5523,1.5479,1.5417,1.5389,1.5344,1.5308,1.5254,1.525,1.5174,1.5191,1.5159,1.5129,1.5127,1.5117,1.5113,1.5109,1.5099,1.5095,1.511,1.5111,1.5111,0,1.5855,1.5767,1.5714,1.5685,1.56,1.5575,1.5538,1.5477,1.5441,1.5385,1.536,1.5298,1.5263,1.5215,1.5162,1.5164,1.5091,1.5082,1.5064,1.5066,1.505,1.5051,1.5033,1.5032,1.5032,1.5032,1.5032,0,1.5836,1.5795,1.5721,1.5688,1.564,1.5587,1.554,1.5499,1.5445,1.5402,1.5359,1.5319,1.5253,1.5204,1.5162,1.5105,1.5089,1.5064,1.5053,1.5067,1.507,1.5044,1.5043,1.5031,1.5031,1.5031,1.5031,0,1.5847,1.5796,1.5735,1.566,1.564,1.5608,1.5542,1.5508,1.5466,1.5411,1.5395,1.5328,1.5268,1.5211,1.513,1.5102,1.5044,1.5031,1.5066,1.506,1.5045,1.5047,1.5008,1.4999,1.5006,1.5006,1.5006,0,1.5837,1.5805,1.5727,1.5697,1.5661,1.5612,1.5576,1.5522,1.5485,1.5412,1.5386,1.5324,1.5271,1.5177,1.5119,1.5056,1.504,1.5031,1.503,1.5045,1.5038,1.504,1.5036,1.5032,1.5032,1.5032,1.5032,0,1.5826,1.5802,1.5753,1.5694,1.5653,1.5604,1.5553,1.5529,1.5465,1.5426,1.5365,1.5325,1.5243,1.5181,1.5112,1.5071,1.504,1.5033,1.5026,1.5039,1.506,1.5047,1.5068,1.5034,1.5034,1.5034,1.5033,1.5033,1.5825,1.5794,1.5735,1.5681,1.5637,1.5591,1.5555,1.5509,1.5458,1.539,1.536,1.5299,1.5236,1.5142,1.5101,1.505,1.5043,1.5032,1.5029,1.5027,1.503,1.507,1.5038,1.5038,1.5037,1.5037,1.5037,0,1.581,1.577,1.5721,1.5652,1.561,1.5587,1.553,1.5494,1.5442,1.5388,1.5337,1.5267,1.5207,1.5145,1.5081,1.5052,1.5036,1.5037,1.5037,1.5028,1.504,1.5053,1.5051,1.5051,1.5051,1.5051,1.5051,1.5051,1.5797,1.5744,1.5713,1.5637,1.5596,1.5538,1.5507,1.5463,1.5419,1.5344,1.5295,1.5256,1.5198,1.5129,1.5072,1.5055,1.5032,1.5037,1.5016,1.5028,1.5027,1.5027,1.5038,1.5033,1.5033,1.5007,1.5007,1.5007]},{"header":{"parameterUnit":"m.s-1","parameterCategory":1,"la1":30.2991,"la2":30.254,"lo1":-89.0895,"lo2":-89.0444,"dy":0.0017,"dx":0.0017,"nx":28,"ny":28,"refTime":"2023-08-29T21:00:00:Z","depth":0,"parameterNumber":3,"parameterNumberName":"V-component_of_WINDS"},"data":[0,0,0,0,0,0,0,0,0,0,0,0,0,0,0,0,0,0,0,0,0,0,0,0,0,0,0,0,0,0,0,0,0,0,0,0,0,0,0,0,0,0,0,0,0,0,0,0,0,0,0,0,0,0,0,0,0,0,-4.845,-4.8452,0,-4.8635,-4.8637,-4.864,-4.8617,-4.8614,-4.8611,-4.8608,-4.8793,-4.8801,-4.8808,0,0,0,0,0,0,0,0,0,0,0,0,0,-4.8072,-4.8079,-4.845,-4.8452,-4.8454,-4.8635,-4.8638,-4.864,-4.8618,-4.8614,-4.861,-4.8607,-4.8791,-4.88,-4.8809,0,0,0,0,0,0,0,0,0,0,0,0,0,-4.8244,-4.8081,-4.8449,-4.8465,-4.8468,-4.8634,-4.8638,-4.8641,-4.8618,-4.8614,-4.8609,-4.8605,-4.8787,-4.8799,-4.881,-4.8971,0,0,-4.8845,-4.885,0,0,0,0,0,0,0,0,-4.8234,-4.8258,-4.846,-4.8464,-4.8468,-4.8599,-4.8572,-4.8751,-4.8619,-4.8561,-4.8608,-4.8603,-4.8732,-4.8747,-4.8792,-4.898,-4.8988,-4.8846,-4.8853,-4.8858,-4.8862,0,0,0,0,0,0,0,-4.8223,-4.825,-4.8523,-4.8463,-4.8468,-4.8461,-4.8481,-4.8606,-4.8669,-4.8566,-4.8565,-4.8587,-4.8733,-4.8781,-4.8796,-4.899,-4.8846,-4.8856,-4.8863,-4.8868,-4.932,-4.9325,0,0,0,0,0,0,-4.8207,-4.824,-4.8517,-4.8529,-4.8338,-4.8472,-4.8494,-4.8561,-4.8668,-4.868,-4.8591,-4.8586,-4.8763,-4.8783,-4.8802,-4.8999,-4.8858,-4.8869,-4.8876,-4.9315,-4.9321,-4.9326,0,0,0,0,0,0,-4.8199,-4.8232,-4.851,-4.8384,-4.8419,-4.8483,-4.8559,-4.8567,-4.8615,-4.8687,-4.8697,-4.8629,-4.8761,-4.8786,-4.893,-4.9005,-4.8874,-4.8885,-4.9309,-4.9317,-4.9324,-4.9392,0,0,0,0,0,0,-4.8188,-4.8229,-4.8292,-4.8386,-4.8426,-4.8635,-4.8564,-4.8574,-4.8636,-4.8631,-4.8725,-4.8736,-4.8759,-4.8913,-4.8941,-4.9018,-4.8894,-4.9302,-4.9312,-4.9321,-4.9383,-4.9401,-4.9416,0,0,0,0,0,-4.8175,-4.8303,-4.8296,-4.8329,-4.8506,-4.864,-4.8662,-4.8688,-4.8642,-4.8705,-4.8751,-4.8733,-4.8992,-4.8928,-4.896,-4.9041,-4.9298,-4.931,-4.9321,-4.9376,-4.9397,-4.9416,0,0,0,0,0,0,-4.8214,-4.8315,-4.8308,-4.847,-4.8547,-4.8636,-4.8716,-4.8709,-4.8799,-4.879,-4.8816,-4.8837,-4.8983,-4.9026,-4.8953,-4.9203,-4.9138,-4.9157,-4.9169,-4.9191,-4.9207,-4.9193,-4.8903,0,0,0,0,0,-4.8242,-4.8344,-4.8426,-4.8561,-4.86,-4.8652,-4.8711,-4.8724,-4.8803,-4.8835,-4.8891,-4.8968,-4.9066,-4.9131,-4.9225,-4.9389,-4.9409,-4.9461,-4.9477,-4.949,-4.9506,-4.9597,-4.9621,-4.9364,-4.9364,-4.9364,0,0,-4.83,-4.8367,-4.843,-4.857,-4.8631,-4.8735,-4.8679,-4.879,-4.8867,-4.8851,-4.8991,-4.9035,-4.9122,-4.9277,-4.9348,-4.9318,-4.9582,-4.9505,-4.9515,-4.9524,-4.9611,-4.9635,-4.9657,-4.9372,-4.937,-4.9369,0,0,-4.8458,-4.852,-4.864,-4.8702,-4.8796,-4.883,-4.8858,-4.8949,-4.8978,-4.912,-4.911,-4.9201,-4.937,-4.9433,-4.9487,-4.9671,-4.9658,-4.97,-4.9786,-4.9874,-4.9894,-4.9912,-4.9979,-5.0002,-4.9715,-4.9716,-4.9716,0,-4.8518,-4.8675,-4.8701,-4.8816,-4.8878,-4.887,-4.8991,-4.905,-4.9169,-4.9211,-4.9176,-4.9389,-4.9447,-4.9617,-4.9662,-4.9705,-4.9739,-4.969,-4.989,-4.9908,-4.9925,-4.9989,-5.0013,-4.972,-4.972,-4.9719,-4.9719,0,-4.8744,-4.8854,-4.8939,-4.9057,-4.9128,-4.9245,-4.9288,-4.9357,-4.9363,-4.9401,-4.9544,-4.9614,-4.9723,-4.9764,-4.9771,-4.9935,-4.9914,-4.9884,-4.982,-4.9954,-5.0014,-5.0038,-4.9727,-4.9725,-4.9724,-4.9723,0,0,-4.8932,-4.9064,-4.9095,-4.9149,-4.9252,-4.9336,-4.9452,-4.9561,-4.962,-4.9702,-4.98,-4.9944,-4.9918,-4.9979,-4.9993,-5.007,-5.0212,-5.0031,-5.0033,-5.0063,-5.0398,-5.0421,-5.0449,-5.0204,-5.0209,-5.0213,-5.0391,0,-4.9102,-4.931,-4.9337,-4.9521,-4.9622,-4.9616,-4.9717,-4.9791,-4.9829,-4.9919,-4.996,-5.0062,-5.0019,-5.0057,-5.0133,-5.0179,-5.028,-5.0166,-5.0295,-5.0299,-5.0274,-5.048,-5.0504,-5.0669,-5.0415,-5.0419,-5.0422,0,-4.9327,-4.9418,-4.9613,-4.9703,-4.9747,-4.9838,-4.994,-5.0027,-5.011,-5.0132,-5.0201,-5.0206,-5.0325,-5.0256,-5.042,-5.0342,-5.0396,-5.0427,-5.0434,-5.0447,-5.0369,-5.0499,-5.0723,-5.0748,-5.0459,-5.0456,-5.0453,0,-4.9446,-4.9617,-4.9756,-4.9802,-4.991,-4.9974,-5.0022,-5.0101,-5.0165,-5.0254,-5.0296,-5.0396,-5.0451,-5.0528,-5.056,-5.0506,-5.0723,-5.0656,-5.0744,-5.0743,-5.079,-5.0787,-5.1026,-5.0824,-5.0823,-5.0823,-5.0822,0,-4.9632,-4.9752,-4.9811,-4.9896,-5.003,-5.0059,-5.019,-5.0235,-5.0306,-5.0399,-5.0399,-5.0486,-5.0522,-5.0614,-5.0639,-5.0772,-5.0796,-5.0817,-5.0822,-5.0818,-5.0815,-5.0854,-5.0843,-5.0829,-5.0828,-5.0827,-5.0826,0,-4.9788,-4.9832,-4.9983,-5.0075,-5.01,-5.0195,-5.0272,-5.0354,-5.0391,-5.051,-5.0539,-5.0597,-5.0706,-5.0745,-5.0877,-5.0893,-5.1048,-5.1043,-5.1021,-5.1022,-5.1108,-5.11,-5.1381,-5.142,-5.1191,-5.1193,-5.1195,0,-4.9904,-4.9996,-5.0098,-5.0162,-5.0213,-5.0315,-5.0381,-5.0413,-5.0482,-5.0584,-5.0654,-5.0763,-5.0852,-5.1026,-5.1079,-5.118,-5.1178,-5.127,-5.1193,-5.1186,-5.1181,-5.1175,-5.1185,-5.1284,-5.1286,-5.1288,-5.129,0,-5.0107,-5.0125,-5.0221,-5.0325,-5.0405,-5.0488,-5.0568,-5.0619,-5.0664,-5.074,-5.0853,-5.0923,-5.1058,-5.1167,-5.127,-5.1318,-5.1312,-5.1314,-5.134,-5.1336,-5.132,-5.1331,-5.106,-5.1307,-5.1305,-5.1304,-5.1303,-5.1302,-5.0247,-5.0329,-5.0414,-5.0522,-5.0586,-5.0662,-5.0744,-5.0792,-5.0888,-5.1002,-5.1015,-5.1137,-5.1217,-5.1357,-5.1409,-5.1504,-5.1478,-5.1516,-5.1525,-5.1534,-5.1541,-5.1304,-5.1522,-5.1522,-5.1522,-5.1521,-5.1521,0,-5.045,-5.0505,-5.0604,-5.0718,-5.0802,-5.079,-5.0879,-5.095,-5.1058,-5.1135,-5.1223,-5.1353,-5.1458,-5.152,-5.1625,-5.1689,-5.1689,-5.1716,-5.1712,-5.1723,-5.1557,-5.1525,-5.1714,-5.1714,-5.1714,-5.1714,-5.1714,-5.1714,-5.0566,-5.0705,-5.0733,-5.0904,-5.0957,-5.1078,-5.113,-5.1199,-5.1261,-5.1407,-5.1495,-5.1536,-5.1607,-5.1717,-5.1813,-5.1828,-5.1867,-5.1897,-5.191,-5.1754,-5.1734,-5.1715,-5.1685,-5.1905,-5.1905,-5.2068,-5.2069,-5.207]}]]